2024/02/02 00:00:00,22.3, 1.4
2024/02/02 00:10:00,22.3, 1.4
2024/02/02 00:20:00,22.3, 1.1
2024/02/02 00:30:00,22.3, 1.2
2024/02/02 00:40:00,22.3, 1.1
2024/02/02 00:50:00,22.2, 0.9
2024/02/02 01:00:00,22.2, 1.2
2024/02/02 01:10:00,22.2, 1.3
2024/02/02 01:20:00,22.2, 1.0
2024/02/02 01:30:00,22.2, 1.0
2024/02/02 01:40:00,22.2, 1.2
2024/02/02 01:50:00,22.1, 1.3
2024/02/02 02:00:00,22.1, 1.0
2024/02/02 02:10:00,22.1, 1.1
2024/02/02 02:20:00,22.1, 0.9
2024/02/02 02:30:00,22.1, 1.0
2024/02/02 02:40:00,22.1, 0.9
2024/02/02 02:50:00,22.1, 0.9
2024/02/02 03:00:00,22.1, 0.9
2024/02/02 03:10:00,22.1, 1.2
2024/02/02 03:20:00,22.1, 0.7
2024/02/02 03:30:00,22.1, 0.9
2024/02/02 03:40:00,22.0, 0.9
2024/02/02 03:50:00,22.0, 0.9
2024/02/02 04:00:00,22.0, 1.2
2024/02/02 04:10:00,22.0, 1.0
2024/02/02 04:20:00,22.0, 0.8
2024/02/02 04:30:00,22.0, 0.8
2024/02/02 04:40:00,22.0, 1.0
2024/02/02 04:50:00,22.0, 0.9
2024/02/02 05:00:00,22.0, 0.9
2024/02/02 05:10:00,22.0, 0.9
2024/02/02 05:20:00,21.9, 0.9
2024/02/02 05:30:00,22.0, 0.7
2024/02/02 05:40:00,22.0, 0.9
2024/02/02 05:50:00,21.9, 0.8
2024/02/02 06:00:00,21.9, 0.7
2024/02/02 06:10:00,21.9, 0.9
2024/02/02 06:20:00,21.9, 0.8
2024/02/02 06:30:00,21.9, 0.8
2024/02/02 06:40:00,21.9, 0.7
2024/02/02 06:50:00,21.9, 0.8
2024/02/02 07:00:00,21.9, 0.8
2024/02/02 07:10:00,21.8, 0.8
2024/02/02 07:20:00,21.8, 0.9
2024/02/02 07:30:00,21.8, 1.3
2024/02/02 07:40:00,21.8, 0.8
2024/02/02 07:50:00,21.8, 1.2
2024/02/02 08:00:00,21.7, 1.6
2024/02/02 08:10:00,21.8, 1.3
2024/02/02 08:20:00,21.8, 1.3
2024/02/02 08:30:00,21.7, 1.6
2024/02/02 08:40:00,21.6, 1.6
2024/02/02 08:50:00,21.6, 1.9
2024/02/02 09:00:00,21.5, 2.1
2024/02/02 09:10:00,21.6, 2.1
2024/02/02 09:20:00,21.5, 2.3
2024/02/02 09:30:00,21.5, 2.4
2024/02/02 09:40:00,21.5, 2.5
2024/02/02 09:50:00,21.4, 2.6
2024/02/02 10:00:00,21.4, 3.0
2024/02/02 10:10:00,21.3, 3.2
2024/02/02 10:20:00,21.3, 2.9
2024/02/02 10:30:00,21.3, 3.3
2024/02/02 10:40:00,21.3, 3.3
2024/02/02 10:50:00,21.4, 3.4
2024/02/02 11:00:00,21.5, 3.7
2024/02/02 11:10:00,21.6, 3.4
2024/02/02 11:20:00,21.3, 3.6
2024/02/02 11:30:00,20.8, 3.8
2024/02/02 11:40:00,20.8, 4.2
2024/02/02 11:50:00,20.5, 6.1
2024/02/02 12:00:00,20.4, 4.9
2024/02/02 12:10:00,20.3, 5.6
2024/02/02 12:20:00,20.6, 4.6
2024/02/02 12:30:00,20.4, 7.7
2024/02/02 12:40:00,20.4, 8.3
2024/02/02 12:50:00,20.1, 8.7
2024/02/02 13:00:00,19.8,10.6
2024/02/02 13:10:00,19.4, 9.8
2024/02/02 13:20:00,19.5, 8.8
2024/02/02 13:30:00,19.6, 9.0
2024/02/02 13:40:00,19.6, 9.3
2024/02/02 13:50:00,20.0, 8.4
2024/02/02 14:00:00,20.0, 9.8
2024/02/02 14:10:00,20.1, 9.5
2024/02/02 14:20:00,20.2,10.6
2024/02/02 14:30:00,20.1,10.9
2024/02/02 14:40:00,19.8,12.0
2024/02/02 14:50:00,19.9,10.8
2024/02/02 15:00:00,19.8,12.0
2024/02/02 15:10:00,19.8,11.3
2024/02/02 15:20:00,19.6,10.8
2024/02/02 15:30:00,19.5,11.5
2024/02/02 15:40:00,19.5, 9.8
2024/02/02 15:50:00,19.5,10.5
2024/02/02 16:00:00,19.3,10.5
2024/02/02 16:10:00,19.4, 8.6
2024/02/02 16:20:00,19.5, 7.1
2024/02/02 16:30:00,19.9, 4.9
2024/02/02 16:40:00,19.9, 4.3
2024/02/02 16:50:00,19.8, 3.7
2024/02/02 17:00:00,19.8, 3.4
2024/02/02 17:10:00,19.6, 3.4
2024/02/02 17:20:00,19.6, 2.9
2024/02/02 17:30:00,19.6, 2.8
2024/02/02 17:40:00,19.6, 2.7
2024/02/02 17:50:00,19.6, 2.4
2024/02/02 18:00:00,19.6, 2.3
2024/02/02 18:10:00,19.6, 2.4
2024/02/02 18:20:00,19.7, 2.2
2024/02/02 18:30:00,19.7, 2.3
2024/02/02 18:40:00,19.7, 1.8
2024/02/02 18:50:00,19.5, 1.8
2024/02/02 19:00:00,19.5, 1.7
2024/02/02 19:10:00,19.6, 1.7
2024/02/02 19:20:00,19.6, 1.9
2024/02/02 19:30:00,19.6, 1.8
2024/02/02 19:40:00,19.5, 1.8
2024/02/02 19:50:00,19.5, 1.6
2024/02/02 20:00:00,19.4, 1.8
2024/02/02 20:10:00,19.5, 1.7
2024/02/02 20:20:00,19.5, 1.6
2024/02/02 20:30:00,19.5, 1.7
2024/02/02 20:40:00,19.5, 1.4
2024/02/02 20:50:00,19.5, 1.4
2024/02/02 21:00:00,19.5, 1.5
2024/02/02 21:10:00,19.4, 1.4
2024/02/02 21:20:00,19.4, 1.4
2024/02/02 21:30:00,19.4, 1.2
2024/02/02 21:40:00,19.4, 1.5
2024/02/02 21:50:00,19.4, 1.6
2024/02/02 22:00:00,19.5, 1.4
2024/02/02 22:10:00,19.5, 1.8
2024/02/02 22:20:00,19.4, 1.7
2024/02/02 22:30:00,19.4, 1.8
2024/02/02 22:40:00,19.4, 1.8
2024/02/02 22:50:00,19.4, 1.7
2024/02/02 23:00:00,19.4, 1.9
2024/02/02 23:10:00,19.4, 1.5
2024/02/02 23:20:00,19.4, 1.6
2024/02/02 23:30:00,19.3, 1.9
2024/02/02 23:40:00,19.3, 1.8
2024/02/02 23:50:00,19.3, 1.7
